Weather reports worldwide

Advertisment
Carterhouse, United Kingdom (99129): temperature & dewpoint: 19.01.2017 01:00:00 - 25.01.2017 01:00:00 (GMT)Carterhouse, United Kingdom (99129): temperature -20cm & temperature -100cm: 19.01.2017 01:00:00 - 25.01.2017 01:00:00 (GMT)Carterhouse, United Kingdom (99129): precipitation: 19.01.2017 01:00:00 - 25.01.2017 01:00:00 (GMT)
Date & Time tt [°C] td [°C] tt -20cm [°C] tt -100cm [°C] rr [mm]
25.01.2017 01:00:00 7,0 6,7 - - -
25.01.2017 00:00:00 6,8 6,6 - - 0,2
24.01.2017 23:00:00 7,0 6,8 - - 0,0
24.01.2017 22:00:00 6,9 6,8 - - 0,0
24.01.2017 21:00:00 7,0 6,8 - - 0,0
24.01.2017 20:00:00 6,9 6,8 - - 0,0
24.01.2017 19:00:00 6,8 6,7 - - 0,2
24.01.2017 18:00:00 6,6 6,6 - - 0,0
24.01.2017 17:00:00 6,7 6,5 - - 0,0
24.01.2017 16:00:00 6,4 6,3 - - 0,0
24.01.2017 15:00:00 6,3 6,2 - - 0,0
24.01.2017 14:00:00 6,1 6,1 - - 0,0
24.01.2017 13:00:00 6,3 6,3 - - 0,0
24.01.2017 12:00:00 5,9 5,8 - - 0,0
24.01.2017 11:00:00 5,5 5,4 - - 0,2
24.01.2017 10:00:00 4,9 4,7 - - 0,0
24.01.2017 09:00:00 5,1 4,4 4,2 5,7 0,0
24.01.2017 08:00:00 4,8 4,1 - - 0,0
24.01.2017 07:00:00 4,8 4,2 - - 0,0
24.01.2017 06:00:00 4,5 4,0 - - 0,0
24.01.2017 05:00:00 4,2 3,7 - - 0,0
24.01.2017 04:00:00 4,4 3,6 - - 0,0
24.01.2017 03:00:00 4,3 3,7 - - 0,0
24.01.2017 02:00:00 4,3 3,5 - - 0,0
24.01.2017 01:00:00 4,4 3,3 - - 0,0
24.01.2017 00:00:00 4,4 3,3 - - 0,0
23.01.2017 23:00:00 4,3 3,4 - - 0,0
23.01.2017 22:00:00 4,0 3,7 - - 0,0
23.01.2017 21:00:00 3,6 3,3 - - 0,0
23.01.2017 20:00:00 3,5 3,0 - - 0,0
23.01.2017 19:00:00 3,2 2,9 - - 0,0
23.01.2017 18:00:00 2,8 1,7 - - 0,0
23.01.2017 17:00:00 2,9 1,1 - - 0,0
23.01.2017 16:00:00 2,9 1,1 - - 0,0
23.01.2017 15:00:00 3,1 0,8 - - 0,0
23.01.2017 14:00:00 3,4 1,1 - - 0,0
23.01.2017 13:00:00 4,1 0,9 - - 0,0
23.01.2017 12:00:00 1,5 0,0 - - 0,0
23.01.2017 11:00:00 1,2 -0,5 - - 0,0
23.01.2017 10:00:00 0,2 -1,4 - - 0,0
23.01.2017 09:00:00 -0,1 -1,4 4,2 5,7 0,0
23.01.2017 08:00:00 -0,7 -2,0 - - 0,0
23.01.2017 07:00:00 -0,7 -2,3 - - 0,0
23.01.2017 06:00:00 -0,8 -2,5 - - 0,0
23.01.2017 05:00:00 0,2 -1,4 - - 0,0
23.01.2017 04:00:00 1,1 -0,4 - - 0,0
23.01.2017 03:00:00 1,2 -0,3 - - 0,0
23.01.2017 02:00:00 1,1 0,1 - - 0,0
23.01.2017 01:00:00 1,1 0,2 - - 0,0
23.01.2017 00:00:00 1,3 0,2 - - 0,0
22.01.2017 23:00:00 1,2 -0,1 - - 0,0
22.01.2017 22:00:00 1,4 0,2 - - 0,0
22.01.2017 21:00:00 1,3 0,4 - - 0,0
22.01.2017 20:00:00 0,9 0,2 - - 0,0
22.01.2017 19:00:00 0,7 0,0 - - 0,0
22.01.2017 18:00:00 0,5 -0,2 - - 0,0
22.01.2017 17:00:00 0,2 -0,8 - - 0,0
22.01.2017 16:00:00 0,4 -1,3 - - 0,0
22.01.2017 15:00:00 0,1 -0,9 - - 0,0
22.01.2017 14:00:00 0,0 -1,2 - - 0,0
22.01.2017 13:00:00 0,1 -0,9 - - 0,0
22.01.2017 12:00:00 0,3 -1,1 - - 0,0
22.01.2017 11:00:00 0,6 -0,9 - - 0,0
22.01.2017 10:00:00 0,8 -1,0 - - 0,0
22.01.2017 09:00:00 0,4 -0,4 4,5 5,7 0,0
22.01.2017 08:00:00 0,6 -0,7 - - 0,0
22.01.2017 07:00:00 0,8 -0,3 - - 0,0
22.01.2017 06:00:00 1,2 0,1 - - 0,0
22.01.2017 05:00:00 1,2 0,2 - - 0,0
22.01.2017 04:00:00 1,1 0,6 - - 0,2
22.01.2017 03:00:00 1,5 0,6 - - 0,0
22.01.2017 02:00:00 1,5 0,6 - - 0,0
22.01.2017 01:00:00 1,6 0,5 - - 0,0
22.01.2017 00:00:00 1,5 0,9 - - 0,0
21.01.2017 23:00:00 1,7 1,0 - - 0,0
21.01.2017 22:00:00 1,9 1,2 - - 0,0
21.01.2017 21:00:00 1,8 1,1 - - 0,0
21.01.2017 20:00:00 2,1 1,0 - - 0,0
21.01.2017 19:00:00 1,7 0,8 - - 0,0
21.01.2017 18:00:00 1,3 0,6 - - 0,0
21.01.2017 17:00:00 1,3 0,4 - - 0,0
21.01.2017 16:00:00 0,4 0,3 - - 0,0
21.01.2017 15:00:00 1,2 -0,5 - - 0,0
21.01.2017 14:00:00 2,3 -0,6 - - 0,0
21.01.2017 13:00:00 2,0 -0,7 - - 0,0
21.01.2017 12:00:00 5,0 0,4 - - 0,2
21.01.2017 11:00:00 2,7 0,6 - - 0,0
21.01.2017 10:00:00 -1,8 -1,9 - - 0,0
21.01.2017 09:00:00 -3,5 -3,6 5,0 5,7 0,0
21.01.2017 08:00:00 -3,3 -3,9 - - 0,0
21.01.2017 07:00:00 -2,0 -2,0 - - 0,0
21.01.2017 06:00:00 -3,5 -3,8 - - 0,0
21.01.2017 05:00:00 -3,0 -3,1 - - 0,0
21.01.2017 04:00:00 -2,9 -3,2 - - 0,0
21.01.2017 03:00:00 -2,8 -2,9 - - 0,0
21.01.2017 02:00:00 -2,7 -2,9 - - 0,0
21.01.2017 01:00:00 -1,5 -1,5 - - 0,0
21.01.2017 00:00:00 -1,9 -2,0 - - 0,0
20.01.2017 23:00:00 -1,6 -1,8 - - 0,0
20.01.2017 22:00:00 0,7 0,5 - - 0,0
20.01.2017 21:00:00 1,9 1,7 - - 0,0
20.01.2017 20:00:00 2,3 2,3 - - 0,0
20.01.2017 19:00:00 2,3 2,3 - - 0,0
20.01.2017 18:00:00 2,1 2,1 - - 0,0
20.01.2017 17:00:00 2,2 2,2 - - 0,0
20.01.2017 16:00:00 2,5 2,4 - - 0,0
20.01.2017 15:00:00 2,7 2,5 - - 0,0
20.01.2017 14:00:00 2,9 2,9 - - 0,0
20.01.2017 13:00:00 3,1 3,1 - - 0,0
20.01.2017 12:00:00 3,1 3,1 - - 0,0
20.01.2017 11:00:00 2,6 2,6 - - 0,0
20.01.2017 10:00:00 2,3 2,3 - - 0,2
20.01.2017 09:00:00 2,2 2,2 5,2 5,7 0,0
20.01.2017 08:00:00 2,2 2,2 - - 0,0
20.01.2017 07:00:00 2,2 2,2 - - 0,0
20.01.2017 06:00:00 2,3 2,3 - - 0,0
20.01.2017 05:00:00 2,5 2,5 - - 0,0
20.01.2017 04:00:00 2,6 2,6 - - 0,0
20.01.2017 03:00:00 2,8 2,8 - - 0,0
20.01.2017 02:00:00 3,0 3,0 - - 0,0
20.01.2017 01:00:00 3,1 3,1 - - 0,0
20.01.2017 00:00:00 3,3 3,3 - - 0,0
19.01.2017 23:00:00 3,5 3,5 - - 0,0
19.01.2017 22:00:00 3,7 3,6 - - 0,0
19.01.2017 21:00:00 3,9 3,7 - - 0,0
19.01.2017 20:00:00 4,2 3,8 - - 0,0
19.01.2017 19:00:00 4,4 3,9 - - 0,0
19.01.2017 18:00:00 4,5 3,9 - - 0,0
19.01.2017 17:00:00 4,7 3,8 - - 0,0
19.01.2017 16:00:00 4,9 3,6 - - 0,0
19.01.2017 15:00:00 5,2 3,7 - - 0,0
19.01.2017 14:00:00 5,5 3,8 - - 0,0
19.01.2017 13:00:00 5,7 3,9 - - 0,0
19.01.2017 12:00:00 5,8 3,7 - - 0,0
19.01.2017 11:00:00 5,5 3,8 - - 0,0
19.01.2017 10:00:00 5,0 3,6 - - 0,0
19.01.2017 09:00:00 4,4 3,1 5,2 5,7 0,0
19.01.2017 08:00:00 4,3 3,0 - - 0,0
19.01.2017 07:00:00 4,5 3,3 - - 0,0
19.01.2017 06:00:00 4,5 3,4 - - 0,0
19.01.2017 05:00:00 4,7 3,5 - - 0,0
19.01.2017 04:00:00 4,9 3,4 - - 0,0
19.01.2017 03:00:00 4,8 3,5 - - 0,0
19.01.2017 02:00:00 4,7 3,4 - - 0,0
19.01.2017 01:00:00 4,7 3,4 - - 0,0

tt = temperature
td = dewpoint
tt -20cm = temperature -20cm
tt -100cm = temperature -100cm
rr = precipitation

Next stations